| time (UTC) | temp F | wind direction | speed MPH | gust MPH | rain 1hr in | rain 24hr in | rain mn in | humidity % | barometer mb |
| 20260510104310 | 68 | 304 | 1.0 | 2.0 | 0.00 | 0.00 | 0.00 | 96 | 1011.8 |
| 20260510103806 | 68 | 242 | 3.0 | 4.0 | 0.00 | 0.00 | 0.00 | 96 | 1011.7 |
| 20260510103303 | 68 | 217 | 0.0 | 2.0 | 0.00 | 0.00 | 0.00 | 96 | 1011.7 |
| 20260510102758 | 68 | 173 | 0.0 | 2.0 | 0.00 | 0.00 | 0.00 | 96 | 1012.0 |
| 20260510102254 | 68 | 229 | 0.0 | 2.0 | 0.00 | 0.00 | 0.00 | 96 | 1012.0 |
| 20260510101751 | 68 | 144 | 0.0 | 3.0 | 0.00 | 0.00 | 0.00 | 96 | 1011.9 |
| 20260510101250 | 68 | 248 | 0.0 | 2.0 | 0.00 | 0.00 | 0.00 | 97 | 1011.9 |
| 20260510100745 | 68 | 123 | 0.0 | 2.0 | 0.00 | 0.00 | 0.00 | 97 | 1012.1 |
| 20260510100243 | 68 | 233 | 1.0 | 2.0 | 0.00 | 0.00 | 0.00 | 97 | 1012.2 |
| 20260510095738 | 68 | 267 | 0.0 | 3.0 | 0.00 | 0.00 | 0.00 | 97 | 1012.3 |
| 20260510095234 | 68 | 291 | 2.0 | 2.0 | 0.00 | 0.00 | 0.00 | 97 | 1012.1 |
| 20260510094733 | 68 | 138 | 1.0 | 2.0 | 0.00 | 0.00 | 0.00 | 97 | 1012.0 |
| 20260510094228 | 68 | 223 | 0.0 | 3.0 | 0.00 | 0.00 | 0.00 | 97 | 1012.1 |
| 20260510093724 | 68 | 269 | 0.0 | 3.0 | 0.00 | 0.00 | 0.00 | 97 | 1012.2 |
| 20260510093222 | 68 | 351 | 0.0 | 2.0 | 0.00 | 0.00 | 0.00 | 97 | 1012.3 |
| 20260510092718 | 68 | 142 | 0.0 | 1.0 | 0.00 | 0.00 | 0.00 | 97 | 1012.4 |
| 20260510092214 | 68 | 111 | 1.0 | 2.0 | 0.00 | 0.00 | 0.00 | 97 | 1012.3 |
| 20260510091710 | 67 | 113 | 0.0 | 0.0 | 0.00 | 0.00 | 0.00 | 97 | 1012.0 |
| 20260510091206 | 68 | 129 | 0.0 | 1.0 | 0.00 | 0.00 | 0.00 | 97 | 1011.8 |
| 20260510090703 | 68 | 237 | 1.0 | 1.0 | 0.00 | 0.00 | 0.00 | 97 | 1012.0 |
| 20260510090200 | 68 | 93 | 0.0 | 1.0 | 0.00 | 0.00 | 0.00 | 97 | 1012.0 |
| 20260510085655 | 68 | 193 | 0.0 | 0.0 | 0.00 | 0.00 | 0.00 | 96 | 1011.9 |
| 20260510085150 | 68 | 193 | 0.0 | 1.0 | 0.00 | 0.00 | 0.00 | 96 | 1011.9 |
| 20260510084647 | 68 | 246 | 0.0 | 0.0 | 0.00 | 0.00 | 0.00 | 96 | 1012.2 |
| 20260510084143 | 69 | 246 | 0.0 | 1.0 | 0.00 | 0.00 | 0.00 | 96 | 1011.9 |
| 20260510083640 | 69 | 269 | 0.0 | 1.0 | 0.00 | 0.00 | 0.00 | 96 | 1011.6 |
| 20260510083137 | 68 | 223 | 0.0 | 2.0 | 0.00 | 0.00 | 0.00 | 96 | 1011.9 |
| 20260510082633 | 68 | 269 | 0.0 | 0.0 | 0.00 | 0.00 | 0.00 | 96 | 1012.0 |
| 20260510082129 | 68 | 263 | 0.0 | 0.0 | 0.00 | 0.00 | 0.00 | 96 | 1011.9 |
| 20260510081623 | 68 | 293 | 0.0 | 0.0 | 0.00 | 0.00 | 0.00 | 96 | 1011.7 |
| 20260510081119 | 68 | 293 | 0.0 | 0.0 | 0.00 | 0.00 | 0.00 | 96 | 1012.1 |
| 20260510080613 | 69 | 293 | 0.0 | 0.0 | 0.00 | 0.00 | 0.00 | 96 | 1011.9 |
| 20260510080110 | 69 | 269 | 0.0 | 1.0 | 0.00 | 0.00 | 0.00 | 95 | 1011.7 |
| 20260510075602 | 69 | 260 | 0.0 | 1.0 | 0.00 | 0.00 | 0.00 | 95 | 1011.9 |
| 20260510075058 | 69 | 304 | 0.0 | 0.0 | 0.00 | 0.00 | 0.00 | 95 | 1012.0 |
| 20260510074556 | 69 | 37 | 0.0 | 0.0 | 0.00 | 0.00 | 0.00 | 94 | 1012.0 |
| 20260510074051 | 69 | 37 | 0.0 | 0.0 | 0.00 | 0.00 | 0.00 | 94 | 1011.9 |
| 20260510073548 | 69 | 322 | 0.0 | 0.0 | 0.00 | 0.00 | 0.00 | 94 | 1012.0 |
| 20260510073045 | 70 | 322 | 0.0 | 0.0 | 0.00 | 0.00 | 0.00 | 94 | 1012.1 |
| 20260510072541 | 70 | 320 | 0.0 | 0.0 | 0.00 | 0.00 | 0.00 | 94 | 1012.0 |
| 20260510072037 | 70 | 217 | 0.0 | 0.0 | 0.00 | 0.00 | 0.00 | 93 | 1012.1 |
| 20260510071533 | 70 | 255 | 1.0 | 2.0 | 0.00 | 0.00 | 0.00 | 94 | 1012.0 |
| 20260510071032 | 70 | 237 | 0.0 | 2.0 | 0.00 | 0.00 | 0.00 | 94 | 1012.0 |
| 20260510070528 | 70 | 219 | 0.0 | 2.0 | 0.00 | 0.00 | 0.00 | 94 | 1012.0 |
| 20260510070025 | 70 | 222 | 0.0 | 2.0 | 0.00 | 0.00 | 0.00 | 95 | 1012.0 |
| 20260510065521 | 70 | 269 | 0.0 | 1.0 | 0.00 | 0.00 | 0.00 | 95 | 1011.8 |
| 20260510065017 | 70 | 275 | 1.0 | 1.0 | 0.00 | 0.00 | 0.00 | 95 | 1011.7 |
| 20260510064514 | 70 | 229 | 0.0 | 0.0 | 0.00 | 0.00 | 0.00 | 94 | 1012.2 |
| 20260510064011 | 70 | 229 | 0.0 | 0.0 | 0.00 | 0.00 | 0.00 | 94 | 1012.1 |
| 20260510063508 | 70 | 304 | 0.0 | 0.0 | 0.00 | 0.00 | 0.00 | 93 | 1012.1 |
| 20260510063005 | 70 | 62 | 0.0 | 0.0 | 0.00 | 0.00 | 0.00 | 93 | 1012.0 |
| 20260510062501 | 70 | 293 | 0.0 | 0.0 | 0.00 | 0.00 | 0.00 | 92 | 1011.8 |
| 20260510061955 | 71 | 293 | 0.0 | 0.0 | 0.00 | 0.00 | 0.00 | 92 | 1011.7 |
| 20260510061453 | 71 | 186 | 0.0 | 0.0 | 0.00 | 0.00 | 0.00 | 92 | 1012.0 |
| 20260510060949 | 71 | 249 | 0.0 | 2.0 | 0.00 | 0.00 | 0.00 | 92 | 1011.8 |
| 20260510060446 | 71 | 227 | 0.0 | 0.0 | 0.00 | 0.00 | 0.00 | 92 | 1012.0 |
| 20260510055942 | 70 | 322 | 0.0 | 0.0 | 0.00 | 0.00 | 0.00 | 91 | 1011.6 |
| 20260510055438 | 71 | 242 | 0.0 | 0.0 | 0.00 | 0.00 | 0.00 | 91 | 1011.7 |
| 20260510054937 | 71 | 269 | 0.0 | 1.0 | 0.00 | 0.00 | 0.00 | 90 | 1011.7 |
| 20260510054431 | 71 | 297 | 0.0 | 0.0 | 0.00 | 0.00 | 0.00 | 89 | 1011.7 |
| 20260510053927 | 71 | 242 | 0.0 | 1.0 | 0.00 | 0.00 | 0.00 | 89 | 1011.8 |
| 20260510053422 | 71 | 297 | 0.0 | 1.0 | 0.00 | 0.00 | 0.00 | 89 | 1011.9 |
| 20260510052919 | 72 | 246 | 0.0 | 0.0 | 0.00 | 0.00 | 0.00 | 89 | 1012.0 |
| 20260510052415 | 72 | 250 | 0.0 | 1.0 | 0.00 | 0.00 | 0.00 | 89 | 1011.9 |
| 20260510051911 | 72 | 256 | 0.0 | 1.0 | 0.00 | 0.00 | 0.00 | 89 | 1012.0 |
| 20260510051408 | 72 | 297 | 0.0 | 0.0 | 0.00 | 0.00 | 0.00 | 88 | 1011.9 |
| 20260510050904 | 72 | 297 | 0.0 | 0.0 | 0.00 | 0.00 | 0.00 | 87 | 1011.9 |
| 20260510050401 | 72 | 235 | 0.0 | 0.0 | 0.00 | 0.00 | 0.00 | 87 | 1012.0 |
| 20260510045858 | 72 | 221 | 1.0 | 1.0 | 0.00 | 0.29 | 0.29 | 87 | 1011.7 |
| 20260510045355 | 73 | 224 | 0.0 | 0.0 | 0.00 | 0.29 | 0.29 | 86 | 1011.8 |
| 20260510044852 | 73 | 235 | 1.0 | 1.0 | 0.00 | 0.29 | 0.29 | 86 | 1011.7 |
| 20260510044349 | 73 | 297 | 0.0 | 0.0 | 0.00 | 0.29 | 0.29 | 85 | 1011.6 |
| 20260510043845 | 74 | 264 | 1.0 | 2.0 | 0.00 | 0.29 | 0.29 | 84 | 1011.7 |
| 20260510043341 | 74 | 352 | 0.0 | 1.0 | 0.00 | 0.29 | 0.29 | 84 | 1011.6 |
| 20260510042839 | 73 | 221 | 1.0 | 3.0 | 0.00 | 0.29 | 0.29 | 88 | 1011.8 |
| 20260510042335 | 73 | 212 | 0.0 | 0.0 | 0.00 | 0.29 | 0.29 | 90 | 1011.5 |
| 20260510041831 | 73 | 55 | 0.0 | 0.0 | 0.00 | 0.29 | 0.29 | 90 | 1011.4 |
| 20260510041329 | 73 | 235 | 0.0 | 0.0 | 0.00 | 0.29 | 0.29 | 88 | 1011.6 |
| 20260510040826 | 73 | 263 | 1.0 | 2.0 | 0.00 | 0.29 | 0.29 | 89 | 1011.5 |
| 20260510040322 | 73 | 269 | 2.0 | 2.0 | 0.00 | 0.29 | 0.29 | 88 | 1011.3 |
| 20260510035818 | 73 | 217 | 0.0 | 0.0 | 0.00 | 0.29 | 0.29 | 89 | 1011.3 |
| 20260510035314 | 73 | 242 | 0.0 | 0.0 | 0.00 | 0.29 | 0.29 | 90 | 1011.3 |
| 20260510034810 | 73 | 228 | 0.0 | 1.0 | 0.00 | 0.29 | 0.29 | 89 | 1011.2 |
| 20260510034308 | 73 | 285 | 0.0 | 1.0 | 0.00 | 0.29 | 0.29 | 90 | 1011.3 |
| 20260510033804 | 73 | 293 | 0.0 | 0.0 | 0.00 | 0.29 | 0.29 | 90 | 1011.2 |
| 20260510033301 | 74 | 237 | 0.0 | 2.0 | 0.00 | 0.29 | 0.29 | 90 | 1011.2 |
| 20260510032757 | 74 | 269 | 0.0 | 0.0 | 0.00 | 0.29 | 0.29 | 88 | 1011.0 |
| 20260510032254 | 74 | 266 | 1.0 | 1.0 | 0.00 | 0.29 | 0.29 | 88 | 1011.0 |
| 20260510031749 | 75 | 256 | 1.0 | 2.0 | 0.00 | 0.29 | 0.29 | 88 | 1011.1 |
| 20260510031245 | 75 | 260 | 1.0 | 2.0 | 0.00 | 0.29 | 0.29 | 88 | 1010.9 |
| 20260510030744 | 75 | 240 | 1.0 | 1.0 | 0.00 | 0.29 | 0.29 | 88 | 1010.9 |
| 20260510030237 | 75 | 230 | 1.0 | 1.0 | 0.00 | 0.29 | 0.29 | 88 | 1010.8 |
| 20260510025734 | 75 | 232 | 1.0 | 2.0 | 0.00 | 0.29 | 0.29 | 88 | 1010.7 |
| 20260510025232 | 75 | 230 | 0.0 | 0.0 | 0.00 | 0.29 | 0.29 | 87 | 1010.6 |
| 20260510024728 | 75 | 257 | 1.0 | 2.0 | 0.00 | 0.29 | 0.29 | 86 | 1010.6 |
| 20260510024225 | 76 | 282 | 0.0 | 1.0 | 0.00 | 0.29 | 0.29 | 84 | 1010.7 |
| 20260510023720 | 77 | 233 | 0.0 | 2.0 | 0.00 | 0.29 | 0.29 | 84 | 1010.7 |
| 20260510023217 | 77 | 251 | 1.0 | 2.0 | 0.00 | 0.29 | 0.29 | 83 | 1010.4 |
| 20260510022713 | 77 | 230 | 0.0 | 0.0 | 0.00 | 0.29 | 0.29 | 81 | 1010.6 |
| 20260510022203 | 77 | 191 | 0.0 | 2.0 | 0.00 | 0.29 | 0.29 | 82 | 1010.4 |
| 20260510021658 | 77 | 195 | 0.0 | 1.0 | 0.00 | 0.29 | 0.29 | 82 | 1010.4 |
| 20260510021155 | 77 | 269 | 0.0 | 1.0 | 0.00 | 0.29 | 0.29 | 82 | 1010.3 |
| 20260510020650 | 77 | 230 | 0.0 | 0.0 | 0.00 | 0.29 | 0.29 | 83 | 1010.5 |
| 20260510020145 | 77 | 309 | 0.0 | 0.0 | 0.00 | 0.29 | 0.29 | 83 | 1010.1 |
| 20260510015642 | 78 | 286 | 1.0 | 1.0 | 0.00 | 0.29 | 0.29 | 82 | 1010.1 |
| 20260510015138 | 78 | 297 | 0.0 | 2.0 | 0.00 | 0.29 | 0.29 | 81 | 1010.1 |
| 20260510014638 | 78 | 298 | 0.0 | 0.0 | 0.00 | 0.29 | 0.29 | 82 | 1009.9 |
| 20260510014136 | 78 | 237 | 1.0 | 2.0 | 0.00 | 0.29 | 0.29 | 82 | 1009.9 |
| 20260510013631 | 78 | 294 | 1.0 | 1.0 | 0.00 | 0.29 | 0.29 | 82 | 1009.8 |
| 20260510013127 | 79 | 309 | 0.0 | 0.0 | 0.00 | 0.29 | 0.29 | 82 | 1009.8 |
| 20260510012626 | 79 | 299 | 0.0 | 1.0 | 0.00 | 0.29 | 0.29 | 80 | 1009.9 |
| 20260510012123 | 80 | 274 | 0.0 | 1.0 | 0.00 | 0.29 | 0.29 | 79 | 1009.8 |
| 20260510011622 | 80 | 259 | 1.0 | 2.0 | 0.00 | 0.29 | 0.29 | 78 | 1009.6 |
| 20260510011118 | 80 | 240 | 0.0 | 2.0 | 0.00 | 0.29 | 0.29 | 76 | 1009.8 |
| 20260510010615 | 80 | 242 | 0.0 | 1.0 | 0.00 | 0.29 | 0.29 | 76 | 1009.6 |
| 20260510010113 | 81 | 284 | 0.0 | 1.0 | 0.00 | 0.29 | 0.29 | 74 | 1009.3 |
| 20260510005608 | 81 | 258 | 0.0 | 1.0 | 0.00 | 0.29 | 0.29 | 73 | 1009.4 |
| 20260510005106 | 82 | 296 | 1.0 | 1.0 | 0.00 | 0.29 | 0.29 | 73 | 1009.4 |
| 20260510004603 | 82 | 129 | 0.0 | 2.0 | 0.00 | 0.29 | 0.29 | 71 | 1009.5 |
| 20260510004101 | 82 | 144 | 0.0 | 1.0 | 0.00 | 0.29 | 0.29 | 71 | 1009.2 |
| 20260510003558 | 83 | 140 | 0.0 | 1.0 | 0.00 | 0.29 | 0.29 | 70 | 1009.1 |
| 20260510003053 | 83 | 104 | 0.0 | 2.0 | 0.00 | 0.29 | 0.29 | 69 | 1009.2 |
| 20260510002548 | 84 | 269 | 0.0 | 1.0 | 0.00 | 0.29 | 0.29 | 67 | 1009.4 |
| 20260510002046 | 86 | 140 | 0.0 | 2.0 | 0.00 | 0.29 | 0.29 | 61 | 1009.2 |
| 20260510001543 | 87 | 269 | 1.0 | 2.0 | 0.00 | 0.29 | 0.29 | 57 | 1009.3 |
| 20260510001042 | 88 | 284 | 0.0 | 1.0 | 0.00 | 0.29 | 0.29 | 56 | 1009.2 |
| 20260510000536 | 88 | 275 | 2.0 | 2.0 | 0.00 | 0.29 | 0.29 | 52 | 1009.0 |
| 20260510000034 | 86 | 264 | 0.0 | 3.0 | 0.00 | 0.29 | 0.29 | 51 | 1009.1 |
| 20260509235530 | 86 | 189 | 1.0 | 2.0 | 0.00 | 0.29 | 0.29 | 52 | 1008.9 |
| 20260509235027 | 86 | 159 | 1.0 | 2.0 | 0.00 | 0.29 | 0.29 | 54 | 1009.0 |
| 20260509234523 | 85 | 174 | 2.0 | 2.0 | 0.00 | 0.29 | 0.29 | 59 | 1009.0 |
| 20260509234021 | 85 | 168 | 0.0 | 3.0 | 0.00 | 0.29 | 0.29 | 60 | 1008.8 |
| 20260509233518 | 87 | 241 | 0.0 | 2.0 | 0.00 | 0.29 | 0.29 | 62 | 1009.0 |
| 20260509233015 | 87 | 272 | 2.0 | 3.0 | 0.00 | 0.29 | 0.29 | 63 | 1008.7 |
| 20260509232512 | 87 | 250 | 2.0 | 3.0 | 0.00 | 0.29 | 0.29 | 61 | 1008.8 |
| 20260509232009 | 84 | 238 | 2.0 | 2.0 | 0.00 | 0.29 | 0.29 | 62 | 1008.8 |
| 20260509231505 | 83 | 142 | 2.0 | 4.0 | 0.00 | 0.29 | 0.29 | 68 | 1009.0 |
| 20260509231003 | 87 | 275 | 1.0 | 2.0 | 0.00 | 0.29 | 0.29 | 67 | 1008.9 |
| 20260509230459 | 87 | 277 | 3.0 | 3.0 | 0.00 | 0.29 | 0.29 | 61 | 1008.9 |
| 20260509225956 | 85 | 249 | 2.0 | 3.0 | 0.00 | 0.29 | 0.29 | 61 | 1009.0 |
| 20260509225452 | 84 | 283 | 2.0 | 3.0 | 0.00 | 0.29 | 0.29 | 70 | 1008.8 |
| 20260509224948 | 82 | 271 | 3.0 | 3.0 | 0.00 | 0.29 | 0.29 | 68 | 1008.9 |
| 20260509224443 | 79 | 112 | 2.0 | 2.0 | 0.00 | 0.29 | 0.29 | 75 | 1008.8 |
| 20260509223941 | 77 | 253 | 0.0 | 2.0 | 0.00 | 0.29 | 0.29 | 76 | 1008.9 |
| 20260509223437 | 76 | 141 | 1.0 | 4.0 | 0.00 | 0.29 | 0.29 | 83 | 1008.7 |
| 20260509222935 | 75 | 291 | 3.0 | 4.0 | 0.02 | 0.29 | 0.29 | 85 | 1008.4 |
| 20260509222430 | 75 | 262 | 3.0 | 6.0 | 0.02 | 0.29 | 0.29 | 82 | 1008.5 |
| 20260509221926 | 73 | 262 | 3.0 | 4.0 | 0.00 | 0.29 | 0.29 | 87 | 1008.8 |
| 20260509221423 | 72 | 264 | 2.0 | 3.0 | 0.00 | 0.29 | 0.29 | 90 | 1008.6 |
| 20260509220918 | 71 | 258 | 5.0 | 9.0 | 0.09 | 0.29 | 0.29 | 87 | 1008.2 |
| 20260509220415 | 70 | 169 | 3.0 | 9.0 | 0.33 | 0.29 | 0.29 | 86 | 1008.4 |
| 20260509215911 | 68 | 279 | 0.0 | 6.0 | 0.54 | 0.26 | 0.26 | 87 | 1008.8 |
| 20260509215406 | 68 | 260 | 3.0 | 8.0 | 0.76 | 0.22 | 0.22 | 84 | 1009.0 |
| 20260509214904 | 70 | 255 | 6.0 | 11.0 | 0.97 | 0.16 | 0.16 | 80 | 1009.8 |
| 20260509214401 | 72 | 38 | 11.0 | 21.0 | 0.45 | 0.07 | 0.07 | 78 | 1009.9 |
| 20260509213858 | 79 | 359 | 8.0 | 11.0 | 0.00 | 0.00 | 0.00 | 70 | 1009.4 |
| 20260509213353 | 85 | 114 | 11.0 | 14.0 | 0.00 | 0.00 | 0.00 | 63 | 1009.2 |
| 20260509212852 | 90 | 248 | 2.0 | 4.0 | 0.00 | 0.00 | 0.00 | 54 | 1008.9 |
| 20260509212349 | 93 | 271 | 3.0 | 5.0 | 0.00 | 0.00 | 0.00 | 54 | 1008.6 |
| 20260509211844 | 94 | 261 | 1.0 | 5.0 | 0.00 | 0.00 | 0.00 | 51 | 1009.0 |
| 20260509211341 | 95 | 291 | 0.0 | 4.0 | 0.00 | 0.00 | 0.00 | 51 | 1008.8 |
| 20260509210837 | 93 | 292 | 1.0 | 5.0 | 0.00 | 0.00 | 0.00 | 53 | 1008.7 |
| 20260509210335 | 93 | 287 | 1.0 | 4.0 | 0.00 | 0.00 | 0.00 | 53 | 1009.0 |
| 20260509205834 | 94 | 223 | 2.0 | 4.0 | 0.00 | 0.00 | 0.00 | 53 | 1008.9 |
| 20260509205329 | 93 | 280 | 3.0 | 4.0 | 0.00 | 0.00 | 0.00 | 53 | 1009.0 |
| 20260509204826 | 93 | 232 | 4.0 | 9.0 | 0.00 | 0.00 | 0.00 | 53 | 1009.0 |
| 20260509204322 | 93 | 247 | 2.0 | 5.0 | 0.00 | 0.00 | 0.00 | 54 | 1009.3 |
| 20260509203819 | 93 | 260 | 3.0 | 5.0 | 0.00 | 0.00 | 0.00 | 54 | 1009.4 |
| 20260509203316 | 91 | 298 | 2.0 | 4.0 | 0.00 | 0.00 | 0.00 | 57 | 1009.3 |
| 20260509202812 | 91 | 251 | 2.0 | 4.0 | 0.00 | 0.00 | 0.00 | 56 | 1009.3 |
| 20260509202309 | 89 | 119 | 4.0 | 5.0 | 0.00 | 0.00 | 0.00 | 61 | 1009.5 |
| 20260509201807 | 89 | 323 | 2.0 | 7.0 | 0.00 | 0.00 | 0.00 | 61 | 1009.7 |
| 20260509201305 | 89 | 137 | 2.0 | 3.0 | 0.00 | 0.00 | 0.00 | 62 | 1009.6 |
| 20260509200801 | 87 | 16 | 4.0 | 6.0 | 0.00 | 0.00 | 0.00 | 62 | 1009.5 |
| 20260509200256 | 87 | 337 | 4.0 | 5.0 | 0.00 | 0.00 | 0.00 | 62 | 1009.7 |
| 20260509195752 | 86 | 323 | 2.0 | 3.0 | 0.00 | 0.00 | 0.00 | 64 | 1009.8 |
| 20260509195248 | 87 | 332 | 4.0 | 4.0 | 0.00 | 0.00 | 0.00 | 65 | 1009.9 |
| 20260509194742 | 87 | 106 | 0.0 | 3.0 | 0.00 | 0.00 | 0.00 | 62 | 1009.7 |
| 20260509194239 | 88 | 301 | 7.0 | 7.0 | 0.00 | 0.00 | 0.00 | 63 | 1010.0 |
| 20260509193736 | 87 | 352 | 0.0 | 3.0 | 0.00 | 0.00 | 0.00 | 61 | 1009.8 |
| 20260509193235 | 87 | 71 | 1.0 | 2.0 | 0.00 | 0.00 | 0.00 | 60 | 1010.0 |
| 20260509192732 | 87 | 315 | 1.0 | 4.0 | 0.00 | 0.00 | 0.00 | 62 | 1010.1 |
| 20260509192227 | 88 | 276 | 0.0 | 4.0 | 0.00 | 0.00 | 0.00 | 61 | 1010.5 |
| 20260509191722 | 87 | 288 | 2.0 | 3.0 | 0.00 | 0.00 | 0.00 | 63 | 1010.3 |
| 20260509191219 | 88 | 84 | 3.0 | 3.0 | 0.00 | 0.00 | 0.00 | 60 | 1010.4 |
| 20260509190715 | 88 | 267 | 3.0 | 6.0 | 0.00 | 0.00 | 0.00 | 60 | 1010.7 |
| 20260509190213 | 91 | 282 | 3.0 | 4.0 | 0.00 | 0.00 | 0.00 | 57 | 1010.7 |
| 20260509185710 | 90 | 299 | 1.0 | 4.0 | 0.00 | 0.00 | 0.00 | 59 | 1010.8 |
| 20260509185206 | 88 | 234 | 2.0 | 3.0 | 0.00 | 0.00 | 0.00 | 61 | 1010.6 |
| 20260509184704 | 89 | 299 | 2.0 | 4.0 | 0.00 | 0.00 | 0.00 | 59 | 1011.2 |
| 20260509184201 | 90 | 106 | 2.0 | 4.0 | 0.00 | 0.00 | 0.00 | 60 | 1011.1 |
| 20260509183657 | 90 | 255 | 0.0 | 3.0 | 0.00 | 0.00 | 0.00 | 61 | 1011.2 |
| 20260509183152 | 89 | 260 | 3.0 | 4.0 | 0.00 | 0.00 | 0.00 | 63 | 1011.0 |
| 20260509182648 | 88 | 193 | 1.0 | 5.0 | 0.00 | 0.00 | 0.00 | 62 | 1011.2 |
| 20260509182146 | 88 | 145 | 2.0 | 4.0 | 0.00 | 0.00 | 0.00 | 63 | 1011.0 |
| 20260509181643 | 88 | 170 | 1.0 | 3.0 | 0.00 | 0.00 | 0.00 | 63 | 1011.2 |
| 20260509181141 | 86 | 172 | 2.0 | 4.0 | 0.00 | 0.00 | 0.00 | 68 | 1011.2 |
| 20260509180637 | 87 | 260 | 4.0 | 5.0 | 0.00 | 0.00 | 0.00 | 65 | 1011.2 |
| 20260509180134 | 85 | 61 | 0.0 | 1.0 | 0.00 | 0.00 | 0.00 | 69 | 1011.2 |
| 20260509175629 | 83 | 350 | 2.0 | 4.0 | 0.00 | 0.00 | 0.00 | 71 | 1011.6 |
| 20260509175127 | 84 | 278 | 3.0 | 3.0 | 0.00 | 0.00 | 0.00 | 71 | 1011.6 |
| 20260509174622 | 84 | 353 | 3.0 | 5.0 | 0.00 | 0.00 | 0.00 | 70 | 1011.5 |
| 20260509174118 | 85 | 312 | 3.0 | 3.0 | 0.00 | 0.00 | 0.00 | 70 | 1011.5 |
| 20260509173613 | 84 | 276 | 3.0 | 4.0 | 0.00 | 0.00 | 0.00 | 71 | 1011.8 |
| 20260509173109 | 83 | 265 | 5.0 | 6.0 | 0.00 | 0.00 | 0.00 | 72 | 1011.7 |
| 20260509172607 | 85 | 290 | 1.0 | 4.0 | 0.00 | 0.00 | 0.00 | 69 | 1011.6 |
| 20260509172103 | 84 | 310 | 2.0 | 6.0 | 0.00 | 0.00 | 0.00 | 70 | 1011.9 |
| 20260509171558 | 86 | 322 | 2.0 | 5.0 | 0.00 | 0.00 | 0.00 | 67 | 1011.8 |
| 20260509171055 | 83 | 241 | 3.0 | 5.0 | 0.00 | 0.00 | 0.00 | 73 | 1012.0 |
| 20260509170551 | 84 | 271 | 3.0 | 7.0 | 0.00 | 0.00 | 0.00 | 73 | 1011.7 |
| 20260509170047 | 84 | 300 | 3.0 | 3.0 | 0.00 | 0.00 | 0.00 | 73 | 1011.8 |
| 20260509165546 | 84 | 240 | 0.0 | 4.0 | 0.00 | 0.00 | 0.00 | 73 | 1011.7 |
| 20260509165041 | 84 | 95 | 3.0 | 4.0 | 0.00 | 0.00 | 0.00 | 73 | 1011.9 |
| 20260509164538 | 84 | 309 | 2.0 | 5.0 | 0.00 | 0.00 | 0.00 | 74 | 1011.9 |
| 20260509164033 | 84 | 273 | 0.0 | 5.0 | 0.00 | 0.00 | 0.00 | 72 | 1011.8 |
| 20260509163532 | 84 | 251 | 3.0 | 5.0 | 0.00 | 0.00 | 0.00 | 72 | 1011.9 |
| 20260509163031 | 81 | 246 | 1.0 | 6.0 | 0.00 | 0.00 | 0.00 | 78 | 1012.0 |
| 20260509162529 | 81 | 249 | 2.0 | 4.0 | 0.00 | 0.00 | 0.00 | 79 | 1012.2 |
| 20260509162025 | 81 | 241 | 1.0 | 4.0 | 0.00 | 0.00 | 0.00 | 78 | 1012.0 |
| 20260509161522 | 82 | 114 | 1.0 | 3.0 | 0.00 | 0.00 | 0.00 | 76 | 1012.0 |
| 20260509161021 | 82 | 103 | 0.0 | 3.0 | 0.00 | 0.00 | 0.00 | 77 | 1012.0 |
| 20260509160517 | 82 | 204 | 3.0 | 3.0 | 0.00 | 0.00 | 0.00 | 78 | 1011.7 |
| 20260509160014 | 81 | 268 | 4.0 | 4.0 | 0.00 | 0.00 | 0.00 | 80 | 1011.7 |
| 20260509155509 | 80 | 264 | 2.0 | 5.0 | 0.00 | 0.00 | 0.00 | 82 | 1011.9 |
| 20260509155006 | 79 | 262 | 3.0 | 4.0 | 0.00 | 0.00 | 0.00 | 85 | 1011.7 |
| 20260509154502 | 78 | 282 | 3.0 | 6.0 | 0.00 | 0.00 | 0.00 | 86 | 1011.9 |
| 20260509154000 | 79 | 263 | 2.0 | 6.0 | 0.00 | 0.00 | 0.00 | 84 | 1011.9 |
| 20260509153457 | 80 | 32 | 0.0 | 5.0 | 0.00 | 0.00 | 0.00 | 83 | 1011.6 |
| 20260509152953 | 78 | 282 | 2.0 | 5.0 | 0.00 | 0.00 | 0.00 | 87 | 1011.8 |
| 20260509152449 | 79 | 240 | 2.0 | 5.0 | 0.00 | 0.00 | 0.00 | 85 | 1011.8 |
| 20260509151947 | 78 | 285 | 2.0 | 5.0 | 0.00 | 0.00 | 0.00 | 88 | 1011.5 |
| 20260509151442 | 77 | 310 | 2.0 | 3.0 | 0.00 | 0.00 | 0.00 | 90 | 1011.6 |
| 20260509150940 | 76 | 255 | 3.0 | 4.0 | 0.00 | 0.00 | 0.00 | 91 | 1011.8 |
| 20260509150438 | 75 | 265 | 2.0 | 4.0 | 0.00 | 0.00 | 0.00 | 95 | 1011.9 |
| 20260509145936 | 75 | 234 | 1.0 | 3.0 | 0.00 | 0.00 | 0.00 | 97 | 1012.0 |
| 20260509145431 | 75 | 307 | 0.0 | 2.0 | 0.00 | 0.00 | 0.00 | 98 | 1012.2 |
| 20260509144927 | 74 | 292 | 2.0 | 3.0 | 0.00 | 0.00 | 0.00 | 99 | 1012.3 |
| 20260509144424 | 74 | 156 | 0.0 | 1.0 | 0.00 | 0.00 | 0.00 | 99 | 1012.6 |
| 20260509143921 | 73 | 214 | 2.0 | 2.0 | 0.00 | 0.00 | 0.00 | 99 | 1012.5 |
| 20260509143418 | 74 | 243 | 0.0 | 1.0 | 0.00 | 0.00 | 0.00 | 99 | 1012.3 |
| 20260509142914 | 73 | 269 | 0.0 | 2.0 | 0.00 | 0.00 | 0.00 | 99 | 1012.3 |
| 20260509142411 | 73 | 50 | 0.0 | 3.0 | 0.00 | 0.00 | 0.00 | 99 | 1012.2 |
| 20260509141907 | 73 | 114 | 0.0 | 1.0 | 0.00 | 0.00 | 0.00 | 99 | 1012.2 |
| 20260509141404 | 73 | 119 | 0.0 | 3.0 | 0.00 | 0.00 | 0.00 | 99 | 1012.1 |
| 20260509140901 | 73 | 95 | 2.0 | 3.0 | 0.00 | 0.00 | 0.00 | 99 | 1011.9 |
| 20260509140357 | 73 | 146 | 0.0 | 3.0 | 0.00 | 0.00 | 0.00 | 99 | 1011.8 |
| 20260509135855 | 73 | 96 | 2.0 | 3.0 | 0.00 | 0.00 | 0.00 | 99 | 1011.4 |
| 20260509135353 | 73 | 42 | 1.0 | 3.0 | 0.00 | 0.00 | 0.00 | 99 | 1011.5 |
| 20260509134850 | 73 | 86 | 2.0 | 3.0 | 0.00 | 0.00 | 0.00 | 99 | 1011.7 |
| 20260509134347 | 72 | 68 | 0.0 | 2.0 | 0.00 | 0.00 | 0.00 | 99 | 1011.5 |
| 20260509133844 | 73 | 303 | 2.0 | 4.0 | 0.00 | 0.00 | 0.00 | 99 | 1011.7 |
| 20260509133341 | 73 | 354 | 1.0 | 2.0 | 0.00 | 0.00 | 0.00 | 99 | 1011.9 |
| 20260509132840 | 72 | 324 | 1.0 | 2.0 | 0.00 | 0.00 | 0.00 | 99 | 1011.5 |
| 20260509132337 | 72 | 104 | 1.0 | 1.0 | 0.00 | 0.00 | 0.00 | 99 | 1011.8 |
| 20260509131834 | 72 | 347 | 2.0 | 4.0 | 0.00 | 0.00 | 0.00 | 99 | 1011.9 |
| 20260509131331 | 72 | 22 | 0.0 | 1.0 | 0.00 | 0.00 | 0.00 | 99 | 1011.7 |
| 20260509130827 | 72 | 147 | 0.0 | 2.0 | 0.00 | 0.00 | 0.00 | 99 | 1011.6 |
| 20260509130323 | 72 | 85 | 1.0 | 2.0 | 0.00 | 0.00 | 0.00 | 99 | 1011.4 |
| 20260509125820 | 72 | 145 | 0.0 | 3.0 | 0.00 | 0.00 | 0.00 | 99 | 1011.7 |
| 20260509125316 | 72 | 163 | 2.0 | 3.0 | 0.00 | 0.00 | 0.00 | 99 | 1011.4 |
| 20260509124813 | 72 | 110 | 0.0 | 2.0 | 0.00 | 0.00 | 0.00 | 99 | 1011.1 |
| 20260509124309 | 72 | 154 | 2.0 | 3.0 | 0.00 | 0.00 | 0.00 | 99 | 1011.3 |
| 20260509123808 | 72 | 162 | 1.0 | 2.0 | 0.00 | 0.00 | 0.00 | 99 | 1011.4 |
| 20260509123305 | 72 | 305 | 2.0 | 3.0 | 0.00 | 0.00 | 0.00 | 99 | 1011.5 |
| 20260509122800 | 72 | 7 | 0.0 | 2.0 | 0.00 | 0.00 | 0.00 | 99 | 1011.6 |
| 20260509122257 | 72 | 225 | 0.0 | 2.0 | 0.00 | 0.00 | 0.00 | 99 | 1011.6 |
| 20260509121754 | 72 | 164 | 0.0 | 2.0 | 0.00 | 0.00 | 0.00 | 99 | 1011.7 |
| 20260509121251 | 72 | 93 | 2.0 | 3.0 | 0.00 | 0.00 | 0.00 | 99 | 1011.9 |
| 20260509120749 | 72 | 73 | 0.0 | 3.0 | 0.00 | 0.00 | 0.00 | 99 | 1011.9 |
| 20260509120247 | 72 | 86 | 2.0 | 2.0 | 0.00 | 0.00 | 0.00 | 99 | 1011.7 |
| 20260509115745 | 72 | 29 | 0.0 | 3.0 | 0.00 | 0.00 | 0.00 | 99 | 1011.8 |
| 20260509115241 | 72 | 323 | 0.0 | 2.0 | 0.00 | 0.00 | 0.00 | 99 | 1011.9 |
| 20260509114740 | 72 | 113 | 0.0 | 1.0 | 0.00 | 0.00 | 0.00 | 99 | 1011.8 |
| 20260509114238 | 72 | 234 | 1.0 | 3.0 | 0.00 | 0.00 | 0.00 | 99 | 1011.9 |
| 20260509113737 | 72 | 0 | 2.0 | 2.0 | 0.00 | 0.00 | 0.00 | 99 | 1011.9 |
| 20260509113233 | 72 | 357 | 2.0 | 5.0 | 0.00 | 0.00 | 0.00 | 99 | 1011.7 |
| 20260509112730 | 72 | 56 | 2.0 | 4.0 | 0.00 | 0.00 | 0.00 | 99 | 1012.0 |
| 20260509112227 | 72 | 355 | 2.0 | 7.0 | 0.00 | 0.00 | 0.00 | 99 | 1011.9 |
| 20260509111724 | 72 | 315 | 3.0 | 6.0 | 0.00 | 0.00 | 0.00 | 99 | 1011.8 |
| 20260509111221 | 72 | 350 | 2.0 | 7.0 | 0.00 | 0.00 | 0.00 | 99 | 1011.4 |
| 20260509110719 | 72 | 336 | 6.0 | 8.0 | 0.00 | 0.00 | 0.00 | 99 | 1011.2 |
| 20260509110215 | 72 | 344 | 2.0 | 7.0 | 0.00 | 0.00 | 0.00 | 99 | 1011.2 |
| 20260509105713 | 72 | 350 | 2.0 | 4.0 | 0.00 | 0.00 | 0.00 | 99 | 1011.0 |
| 20260509105211 | 72 | 337 | 2.0 | 3.0 | 0.00 | 0.00 | 0.00 | 99 | 1011.0 |
| 20260509104707 | 72 | 345 | 3.0 | 3.0 | 0.00 | 0.00 | 0.00 | 98 | 1011.1 |